ARABSAT-5C

Last updated on Sun Apr 12 2026 00:02:52 GMT+0000 (Coordinated Universal Time)

1 37810U 11049B 26101.52459074 .00000125 00000+0 00000+0 0 9996 2 37810 0.0626 25.5863 0002749 0.4134 22.5870 1.00273742 53365
UTC large
Height (km)
Speed (km/s)
/
Latitude / Longitude
Inclination (degrees)
Orbital Period (minutes)
Azimuth
Elevation
Range (km)
Doppler Factor

Next 0 passes for location: London (51.5072 / 0.1276)

Sorry there are no passes over London.
ARABSAT-5C